Content
SEND FEEDBACK

Daily
Averages
Monthly
Summary
Greece

ATHENS, GREECE


Home > Europe > Greece
Elevation: 69 feet     Latitude: 37 54N     Longitude: 023 44E

WEATHER
 
SELECT A DAY
Number of Records: 77,120;   Date Range: 4/14/01 - 8/31/14
 
SHARE

PRINT THIS DATA

[ ← Previous Day ]
WEATHER ALMANAC - SEPTEMBER 15, 2013
[ Next Day → ]
[ °C ]   °F
Weather ElementAverageHighLow
Temperature72.1 °F82.4 °F (12:20 pm)59 °F (4:50 am)
Dewpoint50.1 °F57.2 °F (7:50 pm)32 °F (12:20 pm)
Humidity50 %77 % (4:50 am)16 % (12:20 pm)
Barometer29.96 in30.01 in (12:50 am)29.92 in (3:50 pm)
Wind Speed4.8 mph13.8 mph (1:50 pm)
Weather ElementAverage
Visibility6.2 mi
Wind DirectionSE (137.2 °)

Weather ElementTotal
Precipitation---
Cooling Degree Days5.7 (Base 65)
Growing Degree Days20.7 (Base 50)
Averaged from 47 records on September 15, 2013
WEATHER CONDITIONS BREAKOUT
WIND DIRECTION BREAKOUT
WEATHER BY HOUR - SEPTEMBER 15, 2013
[ °C ]   °F
Local TimeTemperatureDewpointHumidityBarometerVisibilityWind DirectionWind SpeedGust SpeedPrecipitationEventsConditions
12:50 AM64.4 °F51.8 °F64 %30.01 in6.2 miWNW (290°)4.6 mphPartly Cloudy
1:20 AM62.6 °F51.8 °F68 %30.01 in6.2 miWNW (300°)3.5 mphPartly Cloudy
1:50 AM62.6 °F51.8 °F68 %30.01 in6.2 miWNW (300°)3.5 mphPartly Cloudy
2:20 AM62.6 °F51.8 °F68 %30.01 in6.2 miCalmPartly Cloudy
2:50 AM60.8 °F51.8 °F72 %30.01 in6.2 miVariable1.2 mphPartly Cloudy
3:20 AM60.8 °F51.8 °F72 %30.01 in6.2 miCalmPartly Cloudy
3:50 AM62.6 °F53.6 °F72 %29.98 inCalmClear
4:20 AM64.4 °F53.6 °F68 %29.98 in6.2 miNorth (10°)2.3 mphPartly Cloudy
4:50 AM59.0 °F51.8 °F77 %29.98 inNE (50°)2.3 mphClear
5:20 AM62.6 °F55.4 °F77 %29.98 inVariable2.3 mphClear
5:50 AM60.8 °F51.8 °F72 %29.98 inENE (60°)3.5 mphClear
6:20 AM62.6 °F53.6 °F72 %29.98 inVariable1.2 mphClear
6:50 AM66.2 °F51.8 °F60 %29.98 inCalmClear
7:20 AM66.2 °F51.8 °F60 %29.98 inWSW (250°)4.6 mphClear
7:50 AM64.4 °F53.6 °F68 %29.98 inWest (280°)1.2 mphClear
8:20 AM69.8 °F55.4 °F60 %29.98 inVariable1.2 mphClear
8:50 AM71.6 °F53.6 °F53 %29.98 inVariable1.2 mphClear
9:20 AM75.2 °F51.8 °F44 %29.98 inVariable1.2 mphClear
9:50 AM77.0 °F50.0 °F39 %29.98 inNW (320°)4.6 mphClear
10:20 AM78.8 °F46.4 °F32 %30.01 inNW (320°)5.8 mphClear
10:50 AM78.8 °F42.8 °F28 %30.01 inNNW (340°)6.9 mphClear
11:20 AM80.6 °F37.4 °F21 %30.01 inNW (320°)8.1 mphClear
11:50 AM80.6 °F37.4 °F21 %29.98 inWNW (290°)8.1 mphClear
12:20 PM82.4 °F32.0 °F16 %29.98 inNW (320°)9.2 mphClear
12:50 PM80.6 °F42.8 °F26 %29.98 in6.2 miWest (260°)5.8 mphPartly Cloudy
1:20 PM80.6 °F44.6 °F28 %29.98 in6.2 miENE (60°)9.2 mphPartly Cloudy
1:50 PM80.6 °F44.6 °F28 %29.98 in6.2 miENE (70°)13.8 mphPartly Cloudy
2:20 PM80.6 °F42.8 °F26 %29.95 in6.2 miENE (70°)10.4 mphPartly Cloudy
2:50 PM82.4 °F41.0 °F23 %29.95 inESE (120°)8.1 mphClear
3:20 PM82.4 °F41.0 °F23 %29.95 inENE (70°)10.4 mphClear
3:50 PM82.4 °F41.0 °F23 %29.92 inEast (90°)9.2 mphClear
4:20 PM80.6 °F48.2 °F32 %29.92 inEast (80°)8.1 mphClear
4:50 PM80.6 °F48.2 °F32 %29.92 inEast (100°)8.1 mphClear
5:20 PM80.6 °F50.0 °F34 %29.92 inESE (110°)8.1 mphClear
5:50 PM80.6 °F50.0 °F34 %29.92 inESE (120°)9.2 mphClear
6:20 PM78.8 °F50.0 °F36 %29.92 inSE (130°)6.9 mphClear
6:50 PM77.0 °F53.6 °F44 %29.92 inSE (130°)8.1 mphClear
7:20 PM75.2 °F55.4 °F50 %29.92 inESE (110°)5.8 mphClear
7:50 PM73.4 °F57.2 °F57 %29.92 inESE (120°)6.9 mphClear
8:20 PM71.6 °F57.2 °F60 %29.92 inESE (120°)4.6 mphClear
8:50 PM71.6 °F57.2 °F60 %29.92 inESE (110°)3.5 mphClear
9:20 PM71.6 °F57.2 °F60 %29.92 inCalmClear
9:50 PM69.8 °F55.4 °F60 %29.95 inCalmClear
10:20 PM71.6 °F57.2 °F60 %29.95 inWest (270°)1.2 mphClear
10:50 PM69.8 °F55.4 °F60 %29.95 inWest (280°)3.5 mphClear
11:20 PM64.4 °F53.6 °F68 %29.92 inWest (280°)3.5 mphClear
11:50 PM64.4 °F55.4 °F73 %29.92 inWNW (300°)3.5 mphClear
Hourly data recorded from LGAV, located miles away from Athens, Greece







STORIES FROM OUR PARTNERS